Regional Weather Roundup
Issued by NWS

Home | Current Version | Previous Version | Graphics & Text | Print | Product List | Glossary On
Versions: 1 2 3 4 5 6 7 8 9 10 11 12 13 14 15 16 17 18 19 20 21 22 23 24 25 26 27 28 29 30 31 32 33 34 35 36 37 38 39 40 41 42 43 44 45 46 47 48 49 50
000
ASUS43 KIND 050009
RWRIN

WEATHER ROUNDUP FOR INDIANA
NATIONAL WEATHER SERVICE INDIANAPOLIS IN
700 PM EST SUN DEC 04 2016

NOTE: "FAIR" INDICATES FEW OR NO CLOUDS BELOW 12,000 FEET WITH NO
SIGNIFICANT WEATHER AND/OR OBSTRUCTIONS TO VISIBILITY.

* - STATION DOES NOT REPORT WEATHER SUCH AS PRECIPITATION OR FOG.

+ - STATION NOT QUALITY CONTROLLED BY THE NATIONAL WEATHER SERVICE.
    USE DATA WITH CAUTION...ESPECIALLY DEWPOINT AND RELATIVE
    HUMIDITY OBSERVATIONS.

INZ001>003-010>013-019-020-050100-
NORTHWEST INDIANA

CITY           SKY/WX    TMP DP  RH WIND       PRES   REMARKS
GARY /AIRPORT/ LGT SNOW  34  34 100 CALM      29.90S VSB 1
KNOX *+        CLOUDY    32  25  74 SE5       29.87R WCI  27
LA PORTE +     LGT SNOW N/A N/A N/A CALM      29.87F
                                      6HR PCP:  0.25;

MONTICELLO +   LGT SNOW  32  29  90 CALM      29.87S
6HR MIN TEMP:  32; 6HR MAX TEMP:  37;

RENSSELAER +   LGT SNOW  32  32 100 SE6       29.87S WCI  26
VALPARAISO     LGT SNOW  34  31  88 CALM      29.88S FOG
6HR MIN TEMP:  33; 6HR MAX TEMP:  34; 6HR PCP:  0.38;


$$

LMZ046-743>745-050100-
SOUTHERN LAKE MICHIGAN

STATION/POSITION TIME  TEMP    WIND        PRES    WAVE
                       AIR SEA DIR/SP/G            HT
                 (UTC) (F)     (DEG/KT/KT) (MB)    (FT)
BURNS HARBOR     2340   34     270/  7/  8 1012.9R

$$

INZ004-005-014>016-021>024-050100-
NORTH CENTRAL INDIANA

CITY           SKY/WX    TMP DP  RH WIND       PRES   REMARKS
GOSHEN         LGT SNOW  33  30  88 SE8       29.86S VSB 1   WCI  26
6HR MIN TEMP:  33; 6HR MAX TEMP:  37; 6HR PCP:  0.24;

LOGANSPORT +   LGT SNOW  32  32 100 S3        29.88R
PERU/GRISSOM   LGT SNOW  33  33 100 SE7       29.84S FOG     WCI  26
6HR MIN TEMP:  33; 6HR MAX TEMP:  38; 6HR PCP:  0.17;

ROCHESTER +    LGT SNOW  36  36 100 S6        29.87R
SOUTH BEND     LGT SNOW  32  32 100 SE5       29.88R VSB 1   WCI  27
6HR MIN TEMP:  32; 6HR MAX TEMP:  35; 6HR PCP:  0.37;

WARSAW +       LGT SNOW  32  32 100 SE6       29.85F WCI  26

$$

INZ006>009-017-018-025>027-050100-
NORTHEAST INDIANA

CITY           SKY/WX    TMP DP  RH WIND       PRES   REMARKS
ANGOLA *+      CLOUDY    32  30  93 SE9       29.84F WCI  24
AUBURN +       LGT SNOW  32  32 100 E7        29.85F WCI  26
FORT WAYNE     LGT SNOW  33  31  92 E10       29.85F FOG     WCI  25
6HR MIN TEMP:  32; 6HR MAX TEMP:  39; 6HR PCP:  0.29;

HUNTINGTON +   CLOUDY    32  31  98 SE6       29.86F WCI  26
6HR MIN TEMP:  32; 6HR MAX TEMP:  38; 6HR PCP:  0.21;

KENDALLVILLE + LGT SNOW  32  32 100 SE9       29.85F VSB 3/4 WCI  24

$$

INZ028-029-035-036-043>045-051>053-050100-
WEST CENTRAL INDIANA

CITY           SKY/WX    TMP DP  RH WIND       PRES   REMARKS
CRAWFORDSVL +  CLOUDY    36  36 100 SW9       29.87S
6HR MIN TEMP:  35; 6HR MAX TEMP:  37; 6HR PCP:  0.16;

GREENCASTLE +  CLOUDY    37  37 100 SW6G20    29.89R FOG
LAFAYETTE      CLOUDY    32  32 100 CALM      29.87S FOG
6HR MIN TEMP:  31; 6HR MAX TEMP:  37; 6HR PCP:  0.28;

TERRE HAUTE    CLOUDY    40  37  89 SW8       29.90S
6HR MIN TEMP:  40; 6HR MAX TEMP:  41; 6HR PCP:  0.22;


$$

INZ030>032-037>040-046>048-054>057-064-065-050100-
CENTRAL INDIANA

CITY           SKY/WX    TMP DP  RH WIND       PRES   REMARKS
CP ATTERBURY + DRIZZLE   41  39  93 S3        29.88S
COLUMBUS       CLOUDY    41  41 100 S7        29.89S
FRANKFORT +    LGT RAIN  37  36  96 SW5       29.88R
6HR MIN TEMP:  35; 6HR MAX TEMP:  40; 6HR PCP:  0.16;

GREENWOOD *+   CLOUDY    40  40 100 S3        29.87R
6HR MIN TEMP:  39; 6HR MAX TEMP:  41;

INDIANAPOLIS   LGT RAIN  40  39  97 SW10      29.87R
6HR MIN TEMP:  38; 6HR MAX TEMP:  41; 6HR PCP:  0.25;

-EAGLE CREEK   LGT RAIN  41  38  89 SW6       29.87R
6HR MIN TEMP:  39; 6HR MAX TEMP:  41; 6HR PCP:  0.23;

KOKOMO +       LGT RAIN  33  32  96 SE6       29.86F FOG     WCI  28
6HR MIN TEMP:  32; 6HR MAX TEMP:  38; 6HR PCP:  0.25;

MARION +       MIX PCPN  32  32 100 SE8       29.86R WCI  25
MT COMFORT *+  CLOUDY    37  37 100 SE7       29.86S
SHELBYVILLE    LGT RAIN  40  38  93 S7        29.86F
6HR MIN TEMP:  40; 6HR MAX TEMP:  42; 6HR PCP:  0.25;

ZIONSVILLE +   DRIZZLE   37  37  97 SW6       29.87S
6HR MIN TEMP:  36; 6HR MAX TEMP:  38; 6HR PCP:  0.22;


$$

INZ033-034-041-042-049-050-058-059-050100-
EAST CENTRAL INDIANA

CITY           SKY/WX    TMP DP  RH WIND       PRES   REMARKS
MUNCIE         LGT RAIN  36  34  92 SE9       29.84F FOG
6HR MIN TEMP:  35; 6HR MAX TEMP:  41; 6HR PCP:  0.21;


$$

INZ060-061-067>069-081>083-085>088-050100-
SOUTHWEST INDIANA

CITY           SKY/WX    TMP DP  RH WIND       PRES   REMARKS
EVANSVILLE     CLOUDY    44  40  85 W6        29.96R
6HR MIN TEMP:  43; 6HR MAX TEMP:  45; 6HR PCP:  0.14;

HUNTINGBURG *+ CLOUDY    45  43  93 W10       29.94R
6HR MIN TEMP:  45; 6HR MAX TEMP:  45; 6HR PCP:  0.11;

WASHINGTON +   CLOUDY    42  41  98 W10G16    29.92S
6HR MIN TEMP:  42; 6HR MAX TEMP:  44;


$$

INZ062-063-066-070>080-084-089>092-050100-
SOUTH CENTRAL AND SOUTHEAST INDIANA

CITY           SKY/WX    TMP DP  RH WIND       PRES   REMARKS
BLOOMINGTON    LGT RAIN  42  38  85 W10       29.89R
6HR MIN TEMP:  40; 6HR MAX TEMP:  43; 6HR PCP:  0.22;

MADISON *+     CLOUDY    45  43  93 S7        29.90F
NORTH VERNON + LGT RAIN N/A N/A N/A CALM      29.89F
SEYMOUR +      DRIZZLE   43  43 100 CALM      29.89S

$$





USA.gov is the U.S. government's official web portal to all federal, state and local government web resources and services.